Regional Weather Roundup
Issued by NWS Green Bay, WI

Home | Current Version | Previous Version | Graphics & Text | Print | Product List | Glossary Off
Versions: 1 2 3 4 5 6 7 8 9 10 11 12 13 14 15 16 17 18 19 20 21 22 23 24 25 26 27 28 29 30 31 32 33 34 35 36 37 38 39 40 41 42 43 44 45 46 47 48 49 50

000
ASUS43 KGRB 061910
RWRGRB

NORTH-CENTRAL AND NORTHEAST WISCONSIN REGIONAL WEATHER ROUNDUP
NATIONAL WEATHER SERVICE GREEN BAY WI
200 PM CDT WED MAY 06 2015

WIZ005-009-010>012-018-019-062000-
NORTH CENTRAL WISCONSIN

CITY           SKY/WX    TMP DP  RH WIND       PRES   REMARKS
IRONWOOD       CLOUDY    64  54  68 SE12      30.07F
MANITOWISH WTR LGT RAIN  58  56  95 SE5       30.13S
ARBOR VITAE    PTSUNNY   62  56  81 SE9       30.13S
EAGLE RIVER    PTSUNNY   65  53  65 SE9       30.13
LAND O LAKES   CLOUDY    64  51  61 SE6       30.15F
RHINELANDER    PTSUNNY   63  56  78 SE9       30.15F
PHILLIPS       CLOUDY    62  57  82 SE10      30.11F
ANTIGO         CLOUDY    61  57  84 SE12      30.16F
TOMAHAWK       CLOUDY    61  56  84 SE3       30.14F
MERRILL        PTSUNNY   66  59  78 SE10      30.13F
$$

WIZ013-073-062000-
NORTHEAST WISCONSIN

CITY           SKY/WX    TMP DP  RH WIND       PRES   REMARKS
IRON MOUNTAIN  PTSUNNY   67  47  48 S8        30.15F
MARINETTE      PTSUNNY   57  43  58 SE6       30.20R
OCONTO         CLOUDY    62  51  69 SE8       30.19S
$$

WIZ017-030-035>037-045-062000-
CENTRAL WISCONSIN

CITY           SKY/WX    TMP DP  RH WIND       PRES   REMARKS
MEDFORD        LGT RAIN  63  55  77 SE8       30.11F
WAUSAU         PTSUNNY   67  56  67 SE10      30.11F
MOSINEE        MOSUNNY   66  57  72 SE10G20   30.13F
MARSHFIELD     PTSUNNY   73  56  54 SE13      30.10F
WISC RAPIDS    PTSUNNY   72  55  55 S12       30.11F
STEVENS POINT  PTSUNNY   67  55  66 E14       30.13S
WAUPACA        PTSUNNY   69  56  63 E8        30.15F
SHAWANO        CLOUDY    63  55  76 E6        30.17F
CLINTONVILLE   CLOUDY    64  54  68 SE7       30.16S
$$

WIZ038-039-048-051-062000-
FOX VALLEY

CITY           SKY/WX    TMP DP  RH WIND       PRES   REMARKS
NWS GREEN BAY  PTSUNNY   69  57  65 VRB6      30.17F
APPLETON       LGT RAIN  63  55  77 SE6       30.16F HAZE
OSHKOSH        PTSUNNY   63  57  81 E9        30.15F
FOND DU LAC    CLOUDY    61  56  83 SE9       30.15F
$$

WIZ022-050-052-062000-
EAST CENTRAL WISCONSIN

CITY           SKY/WX    TMP DP  RH WIND       PRES   REMARKS
STURGEON BAY   CLOUDY    55  46  71 E8        30.23S
MANITOWOC        N/A    N/A N/A N/A MISG        N/A
SHEBOYGAN      CLOUDY    56  52  86 E10       30.17F
$$

LMZ563-521-522-541>543-062000-
LAKESHORE

STATION/POSITION TIME  TEMP    WIND        PRES    VSBY  WAVE
                       AIR SEA DIR/SP/G                  HT/PER
                 (UTC) (F)     (DEG/KT/KT) (MB)    (MI)  (FT/S)
SHEBOYGAN LKSHOR 1900   49     150/  6/  7 1022.7F
KEWAUNEE LKSHORE 1900   47      50/  4/  6 1021.9F
NORTHPORT PIER   1900   45     140/  4/  6 1022.4F
SISTER BAY LKSHO 1800   60     170/  9/ 11   N/A
STURGEON BAY CG  1800   47      70/  5     1023.2      6   0
CHAMBERS ISLAND  1900   54      40/  4/  5 1022.7S
MENOMINEE LKSHOR 1900   51      10/  4/  4 1023.0S
$$



USA.gov is the U.S. government's official web portal to all federal, state and local government web resources and services.